Home   Weather   Saint George's   Past weeks

Flag for Grenada Past Weather in Saint George's, Grenada — Yesterday and Last 2 Weeks

Now
77 °F

Partly cloudy.


Feels Like: 78 °F
Forecast: 77 / 83 °F
Wind: 8 mph from East

Location: Point Salines Airport

Current Time: Sep 28, 2016 at 4:40:03 AM

Latest Report: Sep 28, 2016 at 4:00 AM


Visibility: N/A

Pressure: 29.80 "Hg

Humidity: 100%

Dew Point: 77 °F

Location of Saint George'sLocation

Past Weather in Saint George's — Graph

°F

Saint George's Temperature Yesterday

Maximum temperature yesterday: 91 °F (at 2:00 PM)
Minimum temperature yesterday: 81 °F (at 12:00 AM)
Average temperature yesterday: 85 °F

High & Low Weather Summary for the Past Weeks

 TemperatureHumidityPressure
High91 °F (Sep 27, 2:00 PM)100% (Sep 28, 3:00 AM)30.01 "Hg (Sep 28, 3:00 AM)
Low79 °F (Sep 13, 10:00 PM)62% (Sep 17, 4:00 PM)29.80 "Hg (Sep 21, 5:00 PM)
Average84 °F82%29.90 "Hg
* Reported Sep 13 3:00 AM — Sep 28 3:00 AM, Saint George's, Weather by CustomWeather, © 2016

Note: Actual official high and low records may vary slightly from our data, if they occured in-between our weather recording intervals... More about our weather records

Advertising

Saint George's Weather History for the Previous 24 Hours

Scroll right to see more
 ConditionsComfort  
Time TempWeatherWind HumidityBarometerVisibility
3:00 AM
Wed, Sep 28
79 °FSprinkles. Overcast.21 mph100%29.83 "HgN/A
2:00 AM81 °FSprinkles. Passing clouds.8 mph94%29.83 "HgN/A
1:30 AM79 °FPassing clouds.No wind94%29.86 "HgN/A
12:00 AM81 °FWarm.No wind89%29.86 "HgN/A
11:00 PM
Tue, Sep 27
82 °FThundershowers. Overcast.No wind84%29.86 "HgN/A
10:00 PM84 °FPassing clouds.6 mph79%29.86 "HgN/A
9:00 PM82 °FPassing clouds.6 mph84%29.86 "HgN/A
8:00 PM82 °FPassing clouds.8 mph84%29.86 "HgN/A
7:00 PM84 °FPassing clouds.9 mph79%29.83 "HgN/A
6:00 PM86 °FPassing clouds.9 mph75%29.83 "HgN/A
5:00 PM88 °FPassing clouds.15 mph66%29.83 "HgN/A
4:00 PM88 °FScattered clouds.12 mph70%29.83 "HgN/A
3:00 PM90 °FPartly sunny.9 mph71%29.83 "HgN/A
2:00 PM91 °FScattered clouds.21 mph71%29.86 "HgN/A
1:00 PM90 °FPartly sunny.23 mph75%29.89 "HgN/A
12:00 PM90 °FScattered clouds.17 mph75%29.89 "HgN/A
11:00 AM90 °FScattered clouds.17 mph71%29.92 "HgN/A
10:00 AM88 °FScattered clouds.12 mph79%29.95 "HgN/A
9:00 AM86 °FScattered showers. Scattered clouds.17 mph79%29.95 "HgN/A
8:00 AM86 °FPassing clouds.14 mph79%29.92 "HgN/A
7:00 AM82 °FScattered clouds.7 mph89%29.92 "HgN/A
6:00 AM81 °FPassing clouds.8 mph84%29.89 "HgN/A
5:00 AM81 °FPassing clouds.8 mph89%29.86 "HgN/A
4:00 AM81 °FPassing clouds.10 mph89%29.86 "HgN/A
Weather by CustomWeather, © 2016

See weather overviewHow to use our weather pages